Location: Coopersdale
(40.3556°N, 78.9372°W)
Time: 08:42:33
(UTC+00:00)

Envisat - Pass Details

Date: 29 November 2020
Orbit: 764 x 766 km, 98.1° (Epoch: 15 January)

Event Time Altitude Azimuth Distance (km) Brightness Sun altitude
Rises 09:55:39 0° 31° (NNE) 3,240 6.6 -26.6°
Reaches altitude 10° 09:58:51 10° 53° (NE) 2,308 6.0 -25.9°
Maximum altitude 10:01:59 16° 91° (E) 1,900 5.9 -25.4°
Drops below altitude 10° 10:05:06 10° 130° (SE) 2,296 6.2 -24.8°
Sets 10:08:16 0° 151° (SSE) 3,216 6.8 -24.2°
